Tian Lian 2-02

operational
NORAD ID: 50005 Int'l Des: 2021-124 Owner: CAST Country: CN
HEOCIRCULARGSO

关于 Tian Lian 2-02

正在加载描述...

实时位置

正在加载3D地球...

即将过境

高度历史

Altitude vs Time

uPlot chart will show altitude changes over time

两行轨道根数

1 50005U 21124A 26063.50530808 -.00000026 00000-0 00000-0 0 9995
2 50005 0.5308 88.2430 0004735 207.6687 219.1937 1.00271468 15577
Epoch: Mar 4, 2026 • Age: 21 hours

当前状态

高度 35766.8 km
速度 3.08 km/s
星下点 -0.11°S, 170.94°E
发射日期 Dec 13, 2021
运行时间 4.2 years
类型 other

技术详情

分类 Payload
质量 5000.00 kg
干质量 2000.00 kg
总质量 5000.00 kg
长度 6.00 m
直径 2.50 m
跨度 20.00 m
形状 Box + 2 Pan + Dish
制造商 CAST
平台类型 DFH-4
阶段状态 In Orbit
所有者/国家 CAST/CN

大型星座

Loading constellations...